• en France
  • Liste des pays
  • À 7 jours
  • Température de l'eau
  • Carte satellitaire
  • Carte météo
  • Widgets météo
  • user-avatar
    Se connecter

    Météo par heure à Dyatlovo

    Ce jour, 21 Septembre, Vendredi

    Heure Température Précipitation Vent Pression Humidité
    00:00 +14°C° 0 mm 2 m/s 745 mmHg 92%
    01:00 +14°C° 0 mm 2 m/s 745 mmHg 93%
    02:00 +14°C° 0 mm 2 m/s 745 mmHg 93%
    03:00 +14°C° 0 mm 2 m/s 745 mmHg 94%
    04:00 +13°C° 0 mm 2 m/s 745 mmHg 94%
    05:00 +13°C° 0 mm 2 m/s 746 mmHg 94%
    06:00 +15°C° 0 mm 2 m/s 746 mmHg 88%
    07:00 +16°C° 0 mm 2 m/s 746 mmHg 83%
    08:00 +17°C° 0 mm 2 m/s 746 mmHg 77%
    09:00 +19°C° 0 mm 2 m/s 746 mmHg 71%
    10:00 +21°C° 0 mm 2 m/s 747 mmHg 65%
    11:00 +24°C° 0 mm 2 m/s 747 mmHg 59%
    12:00 +24°C° 0 mm 2 m/s 747 mmHg 58%
    13:00 +25°C° 0 mm 2 m/s 746 mmHg 57%
    14:00 +25°C° 0 mm 2 m/s 746 mmHg 55%
    15:00 +24°C° 0 mm 2 m/s 746 mmHg 61%
    16:00 +23°C° 0 mm 2 m/s 746 mmHg 67%
    17:00 +20°C° 0 mm 2 m/s 746 mmHg 73%
    18:00 +19°C° 0 mm 2 m/s 746 mmHg 76%
    19:00 +18°C° 0 mm 2 m/s 746 mmHg 79%
    20:00 +17°C° 0 mm 2 m/s 746 mmHg 82%
    21:00 +16°C° 0 mm 2 m/s 746 mmHg 83%
    22:00 +16°C° 0 mm 2 m/s 746 mmHg 84%
    23:00 +16°C° 0 mm 2 m/s 746 mmHg 85%

    Demain, 22 Septembre, Samedi

    Heure Température Précipitation Vent Pression Humidité
    00:00 +15°C° 0 mm 2 m/s 745 mmHg 87%
    01:00 +15°C° 0 mm 2 m/s 745 mmHg 88%
    02:00 +14°C° 0 mm 3 m/s 745 mmHg 90%
    03:00 +14°C° 0 mm 3 m/s 745 mmHg 91%
    04:00 +14°C° 0 mm 3 m/s 745 mmHg 92%
    05:00 +14°C° 0 mm 3 m/s 744 mmHg 93%
    06:00 +17°C° 0 mm 3 m/s 744 mmHg 88%
    07:00 +18°C° 0 mm 4 m/s 744 mmHg 83%
    08:00 +19°C° 0 mm 4 m/s 744 mmHg 77%
    09:00 +21°C° 0 mm 5 m/s 744 mmHg 70%
    10:00 +22°C° 0 mm 5 m/s 743 mmHg 62%
    11:00 +24°C° 0 mm 6 m/s 743 mmHg 55%
    12:00 +24°C° 0 mm 6 m/s 742 mmHg 54%
    13:00 +24°C° 0 mm 6 m/s 742 mmHg 53%
    14:00 +26°C° 0 mm 6 m/s 741 mmHg 52%
    15:00 +23°C° 0.1 mm 5 m/s 741 mmHg 58%
    16:00 +22°C° 0.1 mm 4 m/s 740 mmHg 63%
    17:00 +21°C° 0.1 mm 4 m/s 740 mmHg 68%
    18:00 +20°C° 0.1 mm 4 m/s 740 mmHg 70%
    19:00 +19°C° 0.1 mm 4 m/s 739 mmHg 72%
    20:00 +19°C° 0.1 mm 4 m/s 739 mmHg 74%
    21:00 +18°C° 0.3 mm 4 m/s 739 mmHg 77%
    22:00 +17°C° 0.3 mm 4 m/s 739 mmHg 81%
    23:00 +17°C° 0.3 mm 4 m/s 739 mmHg 84%

    Après-demain, 23 Septembre, Dimanche

    Heure Température Précipitation Vent Pression Humidité
    00:00 +15°C° 0.3 mm 4 m/s 739 mmHg 86%
    01:00 +14°C° 0.3 mm 3 m/s 739 mmHg 88%
    02:00 +12°C° 0.3 mm 3 m/s 739 mmHg 91%
    03:00 +12°C° 0.2 mm 3 m/s 738 mmHg 91%
    04:00 +11°C° 0.2 mm 3 m/s 738 mmHg 91%
    05:00 +11°C° 0.2 mm 3 m/s 738 mmHg 91%
    06:00 +10°C° 0.8 mm 3 m/s 738 mmHg 91%
    07:00 +10°C° 0.8 mm 3 m/s 738 mmHg 91%
    08:00 +9°C° 0.8 mm 3 m/s 738 mmHg 91%
    09:00 +9°C° 1.1 mm 3 m/s 737 mmHg 92%
    10:00 +9°C° 1.1 mm 3 m/s 737 mmHg 92%
    11:00 +8°C° 1.1 mm 4 m/s 737 mmHg 92%
    12:00 +9°C° 2 mm 3 m/s 737 mmHg 92%
    13:00 +9°C° 2 mm 3 m/s 737 mmHg 92%
    14:00 +9°C° 2 mm 3 m/s 737 mmHg 92%
    15:00 +9°C° 0.5 mm 3 m/s 737 mmHg 92%
    16:00 +9°C° 0.5 mm 2 m/s 738 mmHg 92%
    17:00 +10°C° 0.5 mm 2 m/s 738 mmHg 92%
    18:00 +9°C° 0 mm 2 m/s 738 mmHg 93%
    19:00 +9°C° 0 mm 2 m/s 738 mmHg 94%
    20:00 +8°C° 0 mm 2 m/s 738 mmHg 95%
    21:00 +8°C° 0 mm 2 m/s 738 mmHg 95%
    22:00 +8°C° 0 mm 2 m/s 738 mmHg 95%
    23:00 +7°C° 0 mm 2 m/s 738 mmHg 94%

    24 Septembre, Lundi

    Heure Température Précipitation Vent Pression Humidité
    00:00 +7°C° 0 mm 2 m/s 738 mmHg 95%
    01:00 +7°C° 0 mm 3 m/s 738 mmHg 95%
    02:00 +5°C° 0 mm 3 m/s 738 mmHg 96%
    03:00 +5°C° 0 mm 3 m/s 738 mmHg 96%
    04:00 +7°C° 0 mm 3 m/s 739 mmHg 95%
    05:00 +7°C° 0 mm 3 m/s 739 mmHg 95%
    06:00 +7°C° 0 mm 3 m/s 739 mmHg 93%
    07:00 +7°C° 0 mm 4 m/s 739 mmHg 90%
    08:00 +7°C° 0 mm 4 m/s 739 mmHg 88%
    09:00 +8°C° 0 mm 4 m/s 739 mmHg 83%
    10:00 +10°C° 0 mm 4 m/s 739 mmHg 78%
    11:00 +11°C° 0 mm 3 m/s 740 mmHg 73%
    12:00 +12°C° 0 mm 3 m/s 739 mmHg 70%
    13:00 +12°C° 0 mm 3 m/s 739 mmHg 66%
    14:00 +13°C° 0 mm 3 m/s 739 mmHg 62%
    15:00 +13°C° 0 mm 2 m/s 739 mmHg 67%
    16:00 +12°C° 0 mm 2 m/s 738 mmHg 73%
    17:00 +10°C° 0 mm 2 m/s 738 mmHg 78%
    18:00 +10°C° 0.3 mm 2 m/s 738 mmHg 80%
    19:00 +10°C° 0.3 mm 3 m/s 737 mmHg 82%
    20:00 +10°C° 0.3 mm 4 m/s 736 mmHg 85%
    21:00 +8°C° 1 mm 4 m/s 735 mmHg 86%
    22:00 +8°C° 1 mm 5 m/s 735 mmHg 87%
    23:00 +8°C° 1 mm 5 m/s 734 mmHg 88%

    25 Septembre, Mardi

    Heure Température Précipitation Vent Pression Humidité
    00:00 +8°C° 1.6 mm 6 m/s 733 mmHg 89%
    01:00 +8°C° 1.6 mm 6 m/s 731 mmHg 89%
    02:00 +8°C° 1.6 mm 7 m/s 730 mmHg 90%
    03:00 +8°C° 1.6 mm 7 m/s 729 mmHg 90%
    04:00 +8°C° 1.6 mm 7 m/s 728 mmHg 90%
    05:00 +8°C° 1.6 mm 7 m/s 728 mmHg 90%
    06:00 +8°C° 0.4 mm 6 m/s 727 mmHg 90%
    07:00 +9°C° 0.4 mm 6 m/s 727 mmHg 90%
    08:00 +9°C° 0.4 mm 5 m/s 726 mmHg 89%
    09:00 +9°C° 0.3 mm 5 m/s 726 mmHg 87%
    10:00 +9°C° 0.3 mm 5 m/s 726 mmHg 85%
    11:00 +9°C° 0.3 mm 5 m/s 726 mmHg 83%
    12:00 +9°C° 0.4 mm 5 m/s 726 mmHg 84%
    13:00 +10°C° 0.4 mm 4 m/s 726 mmHg 84%
    14:00 +10°C° 0.4 mm 4 m/s 726 mmHg 85%
    15:00 +9°C° 0.3 mm 3 m/s 726 mmHg 87%
    16:00 +9°C° 0.3 mm 3 m/s 726 mmHg 89%
    17:00 +9°C° 0.3 mm 2 m/s 726 mmHg 91%
    18:00 +8°C° 0.2 mm 2 m/s 726 mmHg 92%
    19:00 +8°C° 0.2 mm 2 m/s 727 mmHg 94%
    20:00 +9°C° 0.2 mm 1 m/s 727 mmHg 95%
    21:00 +9°C° 0.2 mm 1 m/s 727 mmHg 95%
    22:00 +8°C° 0.2 mm 2 m/s 727 mmHg 95%
    23:00 +8°C° 0.2 mm 2 m/s 727 mmHg 95%

    26 Septembre, Mercredi

    Heure Température Précipitation Vent Pression Humidité
    00:00 +8°C° 0.4 mm 2 m/s 727 mmHg 95%
    01:00 +8°C° 0.4 mm 3 m/s 728 mmHg 95%
    02:00 +8°C° 0.4 mm 3 m/s 728 mmHg 94%
    03:00 +6°C° 0.4 mm 4 m/s 728 mmHg 93%
    04:00 +6°C° 0.4 mm 4 m/s 729 mmHg 93%
    05:00 +6°C° 0.4 mm 4 m/s 729 mmHg 92%
    06:00 +6°C° 0.2 mm 5 m/s 730 mmHg 91%
    07:00 +6°C° 0.2 mm 5 m/s 731 mmHg 90%
    08:00 +6°C° 0.2 mm 5 m/s 731 mmHg 90%
    09:00 +6°C° 0.3 mm 5 m/s 732 mmHg 89%
    10:00 +6°C° 0.3 mm 5 m/s 733 mmHg 88%
    11:00 +6°C° 0.3 mm 5 m/s 734 mmHg 87%
    12:00 +6°C° 0.1 mm 5 m/s 735 mmHg 87%
    13:00 +6°C° 0.1 mm 5 m/s 736 mmHg 86%
    14:00 +6°C° 0.1 mm 5 m/s 737 mmHg 86%
    15:00 +6°C° 0.2 mm 5 m/s 737 mmHg 87%
    16:00 +6°C° 0.2 mm 5 m/s 738 mmHg 88%
    17:00 +6°C° 0.2 mm 5 m/s 739 mmHg 89%
    18:00 +6°C° 0.2 mm 5 m/s 740 mmHg 90%
    19:00 +6°C° 0.2 mm 5 m/s 741 mmHg 90%
    20:00 +6°C° 0.2 mm 5 m/s 742 mmHg 90%
    21:00 +6°C° 0.1 mm 5 m/s 742 mmHg 90%
    22:00 +6°C° 0.1 mm 4 m/s 743 mmHg 89%
    23:00 +5°C° 0.1 mm 4 m/s 744 mmHg 89%
    Voir plus